This demonstration page uses our WeatherBlox Daily Observations layout. Learn more.

Left ArrowRight Arrow

Hourly Observations for February 22, 2015

Temp ( °F °C ) Dew Point ( °F °C ) Humidity (%) Winds ( mph kmh ) Pressure ( in mb ) Visibility ( mi km ) Precip ( " mm )
12:15 am 00:15 Cloudy 19 -7 10 -12 68 68 NNE 17 28 30.53 1034 10 16 0.00 0.00
12:35 am 00:35 Cloudy 18 -8 9 -13 68 68 NNE 16 26 30.56 1035 10 16 0.00 0.00
12:55 am 00:55 Cloudy 18 -8 9 -13 68 68 NNE 20 31 30.56 1035 7 11 0.00 0.00
1:15 am 01:15 Cloudy 18 -8 10 -12 73 73 NNE 16 26 30.56 1035 5 8 0.00 0.00
1:35 am 01:35 Cloudy 16 -9 12 -11 86 86 NNE 13 20 30.62 1037 2 3 0.00 0.00
1:55 am 01:55 Cloudy 16 -9 10 -12 79 79 N 14 22 30.62 1037 3 4 0.00 0.00
2:15 am 02:15 Cloudy 16 -9 12 -11 86 86 NNE 12 19 30.62 1037 3 5 0.00 0.00
2:35 am 02:35 Cloudy 16 -9 12 -11 86 86 N 13 20 30.62 1037 3 5 0.00 0.00
2:55 am 02:55 Cloudy 16 -9 10 -12 79 79 NNE 12 19 30.62 1037 3 5 0.00 0.00
3:15 am 03:15 Cloudy 16 -9 10 -12 79 79 N 12 19 30.65 1038 3 5 0.00 0.00
3:35 am 03:35 Cloudy 16 -9 10 -12 79 79 N 12 19 30.65 1038 5 8 0.00 0.00
3:55 am 03:55 Cloudy 16 -9 10 -12 79 79 N 13 20 30.65 1038 6 10 0.00 0.00
4:15 am 04:15 Mostly Cloudy 16 -9 10 -12 79 79 N 12 19 30.65 1038 10 16 0.00 0.00
4:35 am 04:35 Cloudy 16 -9 9 -13 73 73 N 18 30 30.65 1038 9 14 0.00 0.00
4:55 am 04:55 Mostly Cloudy 16 -9 3 -16 57 57 N 16 26 30.65 1038 10 16 0.00 0.00
5:15 am 05:15 Cloudy 16 -9 7 -14 67 67 N 12 19 30.68 1039 10 16 0.00 0.00
5:35 am 05:35 Cloudy 16 -9 7 -14 67 67 N 13 20 30.68 1039 10 16 0.00 0.00
5:55 am 05:55 Cloudy 14 -10 3 -16 62 62 N 18 30 30.68 1039 10 16 0.00 0.00
6:15 am 06:15 Cloudy 14 -10 3 -16 62 62 N 17 28 30.68 1039 10 16 0.00 0.00
6:35 am 06:35 Cloudy 14 -10 5 -15 67 67 N 17 28 30.68 1039 10 16 0.00 0.00
6:55 am 06:55 Mostly Cloudy 14 -10 3 -16 62 62 N 16 26 30.71 1040 10 16 0.00 0.00
7:15 am 07:15 Mostly Cloudy 14 -10 5 -15 67 67 N 13 20 30.71 1040 10 16 0.00 0.00
7:35 am 07:35 Cloudy 14 -10 5 -15 67 67 N 14 22 30.77 1042 10 16 0.00 0.00
7:55 am 07:55 Cloudy 12 -11 3 -16 67 67 N 13 20 30.77 1042 10 16 0.00 0.00
8:15 am 08:15 Mostly Cloudy 12 -11 3 -16 67 67 N 13 20 30.77 1042 10 16 0.00 0.00
8:35 am 08:35 Cloudy 12 -11 3 -16 67 67 N 16 26 30.80 1043 10 16 0.00 0.00
8:55 am 08:55 Cloudy 12 -11 1 -17 62 62 N 15 24 30.80 1043 10 16 0.00 0.00
9:15 am 09:15 Mostly Cloudy 12 -11 1 -17 62 62 N 14 22 30.83 1044 10 16 0.00 0.00
9:35 am 09:35 Partly Cloudy 12 -11 1 -17 62 62 N 15 24 30.83 1044 10 16 0.00 0.00
9:55 am 09:55 Mostly Sunny 12 -11 1 -17 62 62 N 15 24 30.83 1044 10 16 0.00 0.00
10:15 am 10:15 Mostly Cloudy 12 -11 1 -17 62 62 NNE 16 26 30.83 1044 10 16 0.00 0.00
10:35 am 10:35 Cloudy 14 -10 1 -17 57 57 N 15 24 30.83 1044 10 16 0.00 0.00
10:55 am 10:55 Cloudy 16 -9 1 -17 53 53 N 20 31 30.80 1043 10 16 0.00 0.00
11:15 am 11:15 Cloudy 16 -9 1 -17 53 53 NNW 16 26 30.80 1043 10 16 0.00 0.00
11:35 am 11:35 Cloudy 16 -9 1 -17 53 53 N 18 30 30.80 1043 10 16 0.00 0.00
11:55 am 11:55 Cloudy 16 -9 3 -16 57 57 N 16 26 30.80 1043 10 16 0.00 0.00
12:15 pm 12:15 Mostly Cloudy 18 -8 3 -16 53 53 NNW 16 26 30.80 1043 10 16 0.00 0.00
12:35 pm 12:35 Partly Cloudy 18 -8 3 -16 53 53 N 17 28 30.80 1043 10 16 0.00 0.00
12:55 pm 12:55 Mostly Sunny 18 -8 1 -17 49 49 N 15 24 30.80 1043 10 16 0.00 0.00
1:15 pm 13:15 Mostly Sunny 19 -7 3 -16 49 49 N 16 26 30.77 1042 10 16 0.00 0.00
1:35 pm 13:35 Mostly Sunny 19 -7 0 -18 42 42 N 16 26 30.77 1042 10 16 0.00 0.00
1:55 pm 13:55 Sunny 18 -8 0 -18 45 45 N 14 22 30.77 1042 10 16 0.00 0.00
2:15 pm 14:15 Sunny 18 -8 -2 -19 41 41 N 17 28 30.77 1042 10 16 0.00 0.00
2:35 pm 14:35 Sunny 18 -8 -2 -19 41 41 N 14 22 30.77 1042 10 16 0.00 0.00
2:55 pm 14:55 Sunny 19 -7 -2 -19 38 38 N 17 28 30.74 1041 10 16 0.00 0.00
3:15 pm 15:15 Sunny 18 -8 -2 -19 41 41 NNE 13 20 30.74 1041 10 16 0.00 0.00
3:35 pm 15:35 Sunny 19 -7 -2 -19 38 38 N 13 20 30.74 1041 10 16 0.00 0.00
3:55 pm 15:55 Sunny 19 -7 -2 -19 38 38 N 17 28 30.74 1041 10 16 0.00 0.00
4:15 pm 16:15 Sunny 18 -8 -4 -20 38 38 N 17 28 30.74 1041 10 16 0.00 0.00
4:35 pm 16:35 Sunny 18 -8 -2 -19 41 41 NNE 12 19 30.74 1041 10 16 0.00 0.00
4:55 pm 16:55 Sunny 18 -8 -4 -20 38 38 N 16 26 30.74 1041 10 16 0.00 0.00
5:15 pm 17:15 Sunny 16 -9 -4 -20 41 41 N 14 22 30.77 1042 10 16 0.00 0.00
5:35 pm 17:35 Sunny 16 -9 -4 -20 41 41 N 13 20 30.77 1042 10 16 0.00 0.00
5:55 pm 17:55 Sunny 16 -9 -4 -20 41 41 N 13 20 30.77 1042 10 16 0.00 0.00
6:15 pm 18:15 Sunny 16 -9 -4 -20 41 41 N 14 22 30.80 1043 10 16 0.00 0.00
6:35 pm 18:35 Clear 12 -11 -4 -20 48 48 N 9 15 30.83 1044 10 16 0.00 0.00
6:55 pm 18:55 Clear 12 -11 -2 -19 52 52 NNE 12 19 30.83 1044 10 16 0.00 0.00
7:15 pm 19:15 Clear 10 -12 -4 -20 52 52 NE 9 15 30.86 1045 10 16 0.00 0.00
7:35 pm 19:35 Clear 10 -12 -4 -20 52 52 NE 9 15 30.86 1045 10 16 0.00 0.00
7:55 pm 19:55 Clear 10 -12 -4 -20 52 52 NNE 7 11 30.86 1045 10 16 0.00 0.00
8:15 pm 20:15 Clear 9 -13 -2 -19 61 61 NE 7 11 30.89 1046 10 16 0.00 0.00
8:35 pm 20:35 Clear 9 -13 -2 -19 61 61 NNE 8 13 30.89 1046 10 16 0.00 0.00
8:55 pm 20:55 Clear 9 -13 -4 -20 56 56 NE 9 15 30.89 1046 10 16 0.00 0.00
9:15 pm 21:15 Clear 9 -13 -6 -21 51 51 NE 7 11 30.89 1046 10 16 0.00 0.00
9:35 pm 21:35 Clear 7 -14 -4 -20 61 61 NE 5 7 30.89 1046 10 16 0.00 0.00
9:55 pm 21:55 Clear 7 -14 -4 -20 61 61 NE 6 9 30.89 1046 10 16 0.00 0.00
10:15 pm 22:15 Clear 7 -14 -2 -19 66 66 NE 7 11 30.89 1046 10 16 0.00 0.00
10:35 pm 22:35 Clear 9 -13 -2 -19 61 61 NE 6 9 30.89 1046 10 16 0.00 0.00
10:55 pm 22:55 Clear 9 -13 -2 -19 61 61 ENE 7 11 30.92 1047 10 16 0.00 0.00
11:15 pm 23:15 Mostly Clear 7 -14 -4 -20 61 61 ENE 7 11 30.92 1047 10 16 0.00 0.00
11:35 pm 23:35 Clear 7 -14 -6 -21 56 56 ENE 6 9 30.92 1047 10 16 0.00 0.00
11:55 pm 23:55 Clear 5 -15 -6 -21 60 60 NE 5 7 30.89 1046 10 16 0.00 0.00

Powered by AerisWeather